Content
SEND FEEDBACK

Daily
Averages
Monthly
Summary
Mexico

SAN LUIS POTOSÍ - CENTRO, SAN LUIS POTOSÍ


Home > North America > Mexico > San Luis Potosí
Elevation: 6138 feet     Latitude: 22 08N     Longitude: 100 58W

WEATHER
 
SELECT A DAY
Number of Records: 175,788;   Date Range: 1/1/95 - 9/15/14
 
SHARE

PRINT THIS DATA

[ ← Previous Day ]
WEATHER ALMANAC - FEBRUARY 3, 2013
[ Next Day → ]
[ °C ]   °F
Weather ElementAverageHighLow
Temperature54.9 °F72 °F (2:50 pm)35.6 °F (7:44 am)
Dewpoint41.7 °F54 °F (5:50 pm)33.8 °F (7:44 am)
Humidity64.3 %98 % (5:45 am)29 % (2:55 pm)
Barometer30.19 in30.42 in (9:42 am)29.90 in (9:00 pm)
Wind Speed2.6 mph10.4 mph (4:51 pm)
Weather ElementAverage
Visibility10.8 mi
Wind DirectionNE (41.7 °)

Weather ElementTotal
Precipitation---
Heating Degree Days11.2 (Base 65)
Growing Degree Days3.8 (Base 50)
Averaged from 29 records on February 3, 2013
WEATHER CONDITIONS BREAKOUT
WIND DIRECTION BREAKOUT
WEATHER BY HOUR - FEBRUARY 3, 2013
[ °C ]   °F
Local TimeTemperatureDewpointHumidityBarometerVisibilityWind DirectionWind SpeedGust SpeedPrecipitationEventsConditions
1:45 AM48.2 °F39.2 °F71 %30.34 in10.0 miESE (120°)4.6 mphClear
2:40 AM46.4 °F39.2 °F76 %30.00 in8.0 miSE (140°)4.6 mphClear
3:47 AM42.8 °F37.4 °F81 %30.33 in8.0 miCalmClear
4:45 AM41.0 °F39.2 °F93 %30.34 in8.0 miCalmClear
5:43 AM41.0 °F39.2 °F93 %30.10 in8.0 miCalmClear
5:45 AM41.0 °F41.0 °F98 %30.25 in3.0 miNorth2.2 mph
6:42 AM37.4 °F35.6 °F93 %30.36 in8.0 miCalmClear
7:44 AM35.6 °F33.8 °F93 %30.39 in8.0 miCalmScattered Clouds
8:41 AM44.6 °F39.2 °F81 %30.17 in10.0 miCalmPartly Cloudy
8:45 AM47.0 °F43.0 °F79 %30.32 in6.0 miENE (60°)2.2 mphHaze
9:42 AM51.8 °F39.2 °F62 %30.42 in12.0 miCalmScattered Clouds
10:44 AM53.6 °F39.2 °F58 %30.41 in15.0 miCalmScattered Clouds
11:41 AM60.8 °F37.4 °F42 %30.07 in15.0 miCalmClear
11:45 AM60.0 °F45.0 °F48 %30.30 in7.0 miSouth (180°)4.5 mphHaze
12:42 PM64.4 °F37.4 °F37 %30.32 in15.0 miEast (80°)4.6 mphClear
1:41 PM68.0 °F35.6 °F30 %30.28 in15.0 miCalmClear
2:50 PM72.0 °F50.0 °F35 %30.11 in12.0 miEast (90°)6.7 mph
2:55 PM71.6 °F37.4 °F29 %29.91 in15.0 miSW (220°)5.8 mphClear
3:42 PM71.6 °F41.0 °F33 %30.20 in15.0 miNNE (20°)9.2 mphClear
4:51 PM69.8 °F42.8 °F38 %30.19 in15.0 miNE (40°)10.4 mphClear
5:50 PM71.0 °F54.0 °F44 %29.95 in12.0 miEast (90°)4.5 mph
5:50 PM68.0 °F41.0 °F37 %29.94 in15.0 miEast (80°)10.4 mphPartly Cloudy
6:52 PM62.6 °F41.0 °F45 %30.20 in15.0 miCalmPartly Cloudy
7:49 PM59.0 °F44.6 °F59 %30.21 in12.0 miCalmClear
8:53 PM55.4 °F42.8 °F63 %30.00 in10.0 miCalmClear
9:00 PM57.0 °F52.0 °F77 %29.90 in5.0 miEast (90°)4.5 mphClear
9:43 PM53.6 °F48.2 °F82 %30.24 in10.0 miCalmClear
10:40 PM50.0 °F48.2 °F94 %30.24 in10.0 miCalmClear
11:44 PM48.2 °F46.4 °F93 %29.96 in10.0 miCalmClear
Hourly data recorded from MMSP, located miles away from San Luis Potosí - Centro, San Luis Potosí







STORIES FROM OUR PARTNERS